This demonstration page uses our WeatherBlox Daily Observations layout. Learn more.

39.29038, -76.61219

Hourly Observations for September 13, 2019

Temp ( °F °C ) Dew Point ( °F °C ) Humidity (%) Winds ( mph kmh ) Pressure ( in mb ) Visibility ( mi km ) Precip ( " mm )
12:54 am 00:54 undefined 73 22.8 67 19.4 81 81 undefined N/A 30.22 1023 N/A 0 0
1:54 am 01:54 undefined 71 21.7 66 18.9 84 84 undefined N/A 30.24 1024 N/A 0 0
2:54 am 02:54 undefined 69 20.6 66 18.9 90 90 undefined N/A 30.25 1024 N/A 0.07 1.778
3:54 am 03:54 undefined 68 20 65 18.3 90 90 undefined N/A 30.26 1025 N/A 0 0
4:54 am 04:54 undefined 68 20 64 17.8 87 87 undefined N/A 30.27 1025 N/A 0 0
5:54 am 05:54 undefined 68 20 61 16.1 78 78 undefined N/A 30.29 1026 N/A 0 0
6:54 am 06:54 undefined 68 20 59 15 73 73 undefined N/A 30.32 1027 N/A 0 0
7:54 am 07:54 undefined 67 19.4 57 13.9 71 71 undefined N/A 30.35 1028 N/A 0 0
8:54 am 08:54 undefined 68 20 57 13.9 68 68 undefined N/A 30.37 1028 N/A 0 0
9:54 am 09:54 undefined 68 20 57 13.9 68 68 undefined N/A 30.38 1029 N/A 0 0
10:54 am 10:54 undefined 68 20 58 14.4 70 70 undefined N/A 30.4 1029 N/A 0 0
11:54 am 11:54 undefined 69 20.6 58 14.4 68 68 undefined N/A 30.4 1030 N/A 0 0
12:54 pm 12:54 undefined 69 20.6 58 14.4 68 68 undefined N/A 30.4 1030 N/A 0 0
1:54 pm 13:54 undefined 70 21.1 58 14.4 66 66 undefined N/A 30.4 1029 N/A 0 0
2:54 pm 14:54 undefined 71 21.7 56 13.3 59 59 undefined N/A 30.39 1029 N/A 0 0
3:54 pm 15:54 undefined 71 21.7 57 13.9 61 61 undefined N/A 30.39 1029 N/A 0 0
4:54 pm 16:54 undefined 71 21.7 56 13.3 59 59 undefined N/A 30.38 1029 N/A 0 0
5:54 pm 17:54 undefined 71 21.7 56 13.3 59 59 undefined N/A 30.39 1029 N/A 0 0
6:54 pm 18:54 undefined 70 21.1 57 13.9 64 64 undefined N/A 30.37 1029 N/A 0 0
7:54 pm 19:54 undefined 70 21.1 58 14.4 66 66 undefined N/A 30.38 1029 N/A 0 0
8:54 pm 20:54 undefined 70 21.1 58 14.4 66 66 undefined N/A 30.39 1029 N/A 0 0
9:54 pm 21:54 undefined 70 21.1 58 14.4 66 66 undefined N/A 30.39 1029 N/A 0 0
10:54 pm 22:54 undefined 69 20.6 59 15 70 70 undefined N/A 30.37 1029 N/A 0 0
11:54 pm 23:54 undefined 69 20.6 59 15 70 70 undefined N/A 30.37 1029 N/A 0 0

Powered by AerisWeather